This is the latest recevied weather packets stored in our database for station/object N8SDR. If no packets are shown the sender has not sent any weather packets the latest 10 day(s).
| Time | Temp. | Humidity | Pressure | Rain* | Wind** | Luminosity | Snow |
|---|---|---|---|---|---|---|---|
| 1778206247 | 10° C | 68% | 1010.6 hPa | 0 mm | - | 0 W/m² | - |
| 1778205944 | 10° C | 69% | 1010.6 hPa | 0 mm | - | 0 W/m² | - |
| 1778205642 | 10° C | 70% | 1010.8 hPa | 0 mm | - | 0 W/m² | - |
| 1778205339 | 10.56° C | 71% | 1010.9 hPa | 0 mm | - | 0 W/m² | - |
| 1778205036 | 10.56° C | 69% | 1010.7 hPa | 0 mm | - | 0 W/m² | - |
| 1778204732 | 10.56° C | 71% | 1010.6 hPa | 0 mm | - | 0 W/m² | - |
| 1778204429 | 10.56° C | 70% | 1010.8 hPa | 0 mm | - | 0 W/m² | - |
| 1778204125 | 11.11° C | 68% | 1010.9 hPa | 0 mm | - | 0 W/m² | - |
| 1778203822 | 11.11° C | 66% | 1010.6 hPa | 0 mm | - | 0 W/m² | - |
| 1778203519 | 11.11° C | 68% | 1010.8 hPa | 0 mm | - | 0 W/m² | - |
| 1778203217 | 10.56° C | 67% | 1010.7 hPa | 0 mm | - | 0 W/m² | - |
| 1778202915 | 11.11° C | 65% | 1010.7 hPa | 0 mm | - | 0 W/m² | - |
| 1778202612 | 11.67° C | 64% | 1010.4 hPa | 0 mm | - | 0 W/m² | - |
| 1778202309 | 11.67° C | 62% | 1010.7 hPa | 0 mm | - | 0 W/m² | - |
| 1778202006 | 11.67° C | 61% | 1010.7 hPa | 0 mm | - | 0 W/m² | - |
| 1778201702 | 12.22° C | 58% | 1010.7 hPa | 0 mm | - | 0 W/m² | - |
| 1778201399 | 12.78° C | 57% | 1010.6 hPa | 0 mm | - | 0 W/m² | - |
| 1778201095 | 12.78° C | 54% | 1010.8 hPa | 0 mm | - | 0 W/m² | - |
| 1778200792 | 13.33° C | 54% | 1010.6 hPa | 0 mm | - | 1 W/m² | - |
| 1778200489 | 13.89° C | 51% | 1010.4 hPa | 0 mm | - | 2 W/m² | - |
| 1778200186 | 13.89° C | 49% | 1010.6 hPa | 0 mm | - | 4 W/m² | - |
| 1778199882 | 14.44° C | 47% | 1010.5 hPa | 0 mm | - | 8 W/m² | - |
| 1778199578 | 14.44° C | 46% | 1010.5 hPa | 0 mm | - | 10 W/m² | - |
| 1778199275 | 15° C | 46% | 1010.2 hPa | 0 mm | - | 14 W/m² | - |
| 1778198971 | 15.56° C | 44% | 1010.3 hPa | 0 mm | - | 19 W/m² | - |
* Rain latest hour (hover to see other rain measurements)
** Current wind speed in m/s (hover to see current wind gust speed)